Terminal Aerodrome Forecast
Issued by NWS

Home | Current Version | Previous Version | Graphics & Text | Print | Product List | Glossary On
Versions: 1 2 3 4 5 6 7 8 9 10 11 12
179
FTUS43 KTOP 280520
TAFFOE
TAF
KFOE 280520Z 2806/2906 23004KT P6SM SKC
     FM281400 01011KT P6SM SKC
     FM290000 36005KT P6SM SKC=

USA.gov is the U.S. government's official web portal to all federal, state and local government web resources and services.